Location: Baix
(44.7118°N, 4.7648°E)
Time: 15:40:44
(UTC+00:00)

Explorer 11/Cluster Stage 4 - Pass Details

Date: 04 December 2020
Orbit: 467 x 1258 km, 28.8° (Epoch: 14 January)

Event Time Altitude Azimuth Distance (km) Brightness Sun altitude
Rises 22:02:49 0° 251° (WSW) 4,014 - -61.2°
Reaches altitude 10° 22:06:57 10° 233° (SW) 2,918 - -61.7°
Maximum altitude 22:11:07 16° 197° (SSW) 2,310 - -62.3°
Drops below altitude 10° 22:14:53 10° 160° (SSE) 2,580 - -62.7°
Sets 22:18:13 0° 140° (SE) 3,350 - -63.1°
